Weather Roundup
Issued by NWS

Home | Current Version | Previous Version | Graphics & Text | Print | Product List | Glossary Off
Versions: 1 2 3 4 5 6 7 8 9 10 11 12 13 14 15 16 17 18 19 20 21 22 23 24 25 26 27 28 29 30 31 32 33 34 35 36 37 38 39 40 41 42 43 44 45 46 47 48 49 50

000
NZUS93 KARX 081010
HRRWXR

CURRENT HOURLY OBSERVATIONS ACROSS
MUCH OF THE UPPER MISSISSIPPI VALLEY
NATIONAL WEATHER SERVICE LA CROSSE WI
400 AM CST THU DEC 08 2016


...SOUTHEAST MINNESOTA...


CITY           SKY/WX    TMP DP  RH WIND       PRES   REMARKS
ROCHESTER      LGT SNOW  13   8  81 W21       30.16R WCI  -5
ROCHESTER/MAYO CLOUDY    14  10  83 W21G32    30.16S WCI  -4
WINONA           N/A     18  10  73 NW8G17    30.19S WCI   7
AUSTIN         LGT SNOW  12   9  85 W21G26    30.20S WCI  -6
ALBERT LEA     LGT SNOW  16  12  86 W14G23    30.22S WCI   1
DODGE CENTER   LGT SNOW  12   9  85 W21G28    30.17S WCI  -6
PRESTON        LGT SNOW  12   7  83 W16G22    30.17S WCI  -5
OWATONNA       FLURRIES  14   9  79 W22G28    30.21R WCI  -4
FARIBAULT      NOT AVBL
$$

...ELSEWHERE IN MINNESOTA...


CITY           SKY/WX    TMP DP  RH WIND       PRES   REMARKS
MINNEAPOLIS    CLOUDY    17  11  77 W10       30.19R WCI   5
INTNL FALLS    LGT SNOW  19  15  84 NW8       30.12R FOG     WCI   9
DULUTH         LGT SNOW  22  18  85 NW13      30.02R FOG     WCI  10
RED WING       LGT SNOW  16  10  79 W13       30.17R WCI   2
REDWOOD FALLS  LGT SNOW  15   9  76 NW18G29   30.30R WCI  -2
MANKATO        FLURRIES  14   9  80 W22G31    30.25R WCI  -4
WORTHINGTON    LGT SNOW   9   3  78 W26       30.33R WCI -13
FAIRMONT       FLURRIES  13   7  77 NW24G31   30.29R WCI  -7
$$

...SOUTHWEST WISCONSIN...


CITY           SKY/WX    TMP DP  RH WIND       PRES   REMARKS
LA CROSSE      CLOUDY    18  10  71 W13       30.18S WCI   5
PRAIRIE DU CHI CLOUDY    15   6  68 W9G17     30.23F WCI   3
BOSCOBEL       CLOUDY    16   7  67 W7        30.22R WCI   6
LONE ROCK      CLOUDY    16   7  67 W15       30.18R WCI   1
PLATTEVILLE    CLOUDY    14   8  78 W22       30.19S WCI  -4
FORT MC COY    FLURRIES  16  11  82 W9        30.15R WCI   4
CAMP DOUGLAS   FLURRIES  14   9  79 W14       30.11R WCI  -1
MAUSTON-NEW LI CLOUDY    16   9  74 W12G18    30.11S WCI   3
VIROQUA        CLOUDY    13   9  82 W14       30.13S WCI  -2
WIS DELLS      FLURRIES  16   9  74 W16       30.11R WCI   1
$$

...ELSEWHERE IN WISCONSIN...


CITY           SKY/WX    TMP DP  RH WIND       PRES   REMARKS
MILWAUKEE      FLURRIES  23  12  62 W10       30.09S WCI  12
MADISON        CLOUDY    16   7  67 W13G24    30.13R WCI   2
GREEN BAY      LGT SNOW  21  13  71 W17G28    30.02S WCI   7
EAU CLAIRE     CLOUDY    16  11  80 W13       30.10S WCI   2
BLACK RVR FLS  LGT SNOW  16  10  76 W10       30.13R WCI   3
MEDFORD        FLURRIES  13   9  85 W9G17     30.00R WCI   1
WAUSAU         FLURRIES  15  10  80 W13       30.00S WCI   1
WIS RAPIDS     FLURRIES  16  10  77 W13G20    30.07S WCI   2
MARSHFIELD     LGT SNOW  14   9  80 W15G23    30.03S WCI  -1
RICE LAKE      LGT SNOW  17  14  86 W9        30.09R WCI   6
$$

...NORTHEAST IOWA...


CITY           SKY/WX    TMP DP  RH WIND       PRES   REMARKS
WATERLOO       CLEAR     12   5  73 W16G23    30.28S WCI  -5
DUBUQUE        CLOUDY    13   6  74 W22G31    30.21F WCI  -6
DECORAH        FLURRIES  12   7  79 VRB7G20   30.19S WCI   2
MASON CITY     MOCLDY    10   4  76 W20       30.27S WCI  -9
CHARLES CITY   CLOUDY    12   5  73 W18G28    30.24F WCI  -5
OELWEIN        PTCLDY    10   7  85 W22G28    30.24S WCI  -9
$$

...ELSEWHERE IN IOWA...


CITY           SKY/WX    TMP DP  RH WIND       PRES   REMARKS
DES MOINES     PTCLDY    14   5  67 NW18      30.40R WCI  -3
IOWA CITY      CLOUDY    17   8  67 W16G23    30.33S WCI   2
FORT DODGE     CLEAR     10   1  67 W10G21    30.36R WCI  -3
MARSHALLTOWN   PTCLDY    11   6  81 W18G26    30.33S WCI  -7
CEDAR RAPIDS   PTCLDY    13   8  81 W22G28    30.28S WCI  -6
$$

...NORTHERN ILLINOIS...


CITY           SKY/WX    TMP DP  RH WIND       PRES   REMARKS
CHICAGO-OHARE  FLURRIES  22  12  65 W20G29    30.15S WCI   7
CHICAGO-MIDWAY FLURRIES  23  12  62 W14       30.17S WCI  11
MOLINE         CLOUDY    20   9  62 W17G24    30.28S WCI   5
ROCKFORD       FLURRIES  20  12  71 W14G25    30.19R WCI   7
PEORIA         MOCLDY    19  11  70 W17G24    30.30S WCI   4
$$

NOTE: "FAIR" INDICATES FEW OR NO CLOUDS BELOW 12,000 FEET WITH NO
SIGNIFICANT WEATHER AND/OR OBSTRUCTIONS TO VISIBILITY. WIND
SPEEDS ARE IN MILES-PER-HOUR.




USA.gov is the U.S. government's official web portal to all federal, state and local government web resources and services.